This is the latest recevied weather packets stored in our database for station/object AC1IX. If no packets are shown the sender has not sent any weather packets the latest 10 day(s).
| Time | Temp. | Humidity | Pressure | Rain* | Wind** | Luminosity | Snow |
|---|---|---|---|---|---|---|---|
| 1777737266 | 6.11° C | 97% | 1012.9 hPa | 0 mm | - | 51 W/m² | - |
| 1777736961 | 6.11° C | 98% | 1012.9 hPa | 0 mm | - | 39 W/m² | - |
| 1777736060 | 5.56° C | 99% | 1013.1 hPa | 0 mm | - | 85 W/m² | - |
| 1777735757 | 5.56° C | 99% | 1012.9 hPa | 0 mm | - | 80 W/m² | - |
| 1777735455 | 5.56° C | 99% | 1012.9 hPa | 0 mm | - | 69 W/m² | - |
| 1777735153 | 5.56° C | 99% | 1012.9 hPa | 0 mm | - | 42 W/m² | - |
| 1777734849 | 5.56° C | 99% | 1013.1 hPa | 0 mm | - | 41 W/m² | - |
| 1777734547 | 5.56° C | 99% | 1013.4 hPa | 0 mm | - | 62 W/m² | - |
| 1777734243 | 5.56° C | 99% | 1013 hPa | 0 mm | - | 58 W/m² | - |
| 1777733939 | 5.56° C | 99% | 1013 hPa | 0 mm | - | 44 W/m² | - |
| 1777733636 | 5.56° C | 99% | 1013 hPa | 0 mm | - | 56 W/m² | - |
| 1777733332 | 5.56° C | 99% | 1013.2 hPa | 0 mm | - | 81 W/m² | - |
| 1777733029 | 5.56° C | 99% | 1013.1 hPa | 0 mm | - | 76 W/m² | - |
| 1777732725 | 5.56° C | 99% | 1013.1 hPa | 0 mm | - | 56 W/m² | - |
| 1777732423 | 5.56° C | 99% | 1013.2 hPa | 0 mm | - | 44 W/m² | - |
| 1777732120 | 5° C | 99% | 1013.1 hPa | 0 mm | - | 45 W/m² | - |
| 1777731817 | 5° C | 99% | 1013.1 hPa | 0 mm | - | 58 W/m² | - |
| 1777731513 | 5° C | 99% | 1013.1 hPa | 0 mm | - | 65 W/m² | - |
| 1777731212 | 5.56° C | 99% | 1013.2 hPa | 0 mm | - | 69 W/m² | - |
| 1777730909 | 5° C | 99% | 1013 hPa | 0 mm | - | 80 W/m² | - |
| 1777730303 | 5° C | 99% | 1013 hPa | 0 mm | - | 97 W/m² | - |
| 1777730000 | 5° C | 99% | 1013 hPa | 0 mm | - | 87 W/m² | - |
| 1777729696 | 5° C | 99% | 1013.3 hPa | 0 mm | - | 62 W/m² | - |
| 1777729089 | 5° C | 99% | 1013.2 hPa | 0 mm | - | 81 W/m² | - |
| 1777728786 | 5° C | 99% | 1013.2 hPa | 0 mm | - | 38 W/m² | - |
* Rain latest hour (hover to see other rain measurements)
** Current wind speed in m/s (hover to see current wind gust speed)